Home   Weather   Yorkton   Past weeks
Flag for Canada

Past Weather in Yorkton, Saskatchewan, Canada — Yesterday and Last 2 Weeks

Now
32 °F

Mostly cloudy.


Feels Like: 27 °F
Forecast: 42 / 27 °F
Wind: 5 mph from South

Location: Yorkton

Current Time: Oct 14, 2019 at 4:36:33 am

Latest Report: Oct 14, 2019 at 4:00 am


Visibility: 9 mi

Pressure: 29.87 "Hg (28.04 "Hg at 505m altitude)

Humidity: 87%

Dew Point: 28 °F

Location of YorktonLocation

Past Weather in Yorkton — Graph

°F

Yorkton Temperature Yesterday

Maximum temperature yesterday: 43 °F (at 3:00 pm)
Minimum temperature yesterday: 32 °F (at 12:00 am)
Average temperature yesterday: 36 °F

High & Low Weather Summary for the Past Weeks

 TemperatureHumidityPressure
High68 °F (Oct 7, 3:00 pm)100% (Sep 29, 10:35 am)30.45 "Hg (Sep 29, 10:35 am)
Low19 °F (Oct 11, 5:00 am)24% (Oct 7, 3:00 pm)29.37 "Hg (Oct 8, 5:00 am)
Average38 °F82%30.04 "Hg
* Reported Sep 29 3:00 am — Oct 14 3:00 am, Yorkton. Weather by CustomWeather, © 2019

Note: Actual official high and low records may vary slightly from our data, if they occured in-between our weather recording intervals... More about our weather records

Advertising

Yorkton Weather History for the Previous 24 Hours

Scroll right to see more
 ConditionsComfort  
Time TempWeatherWind HumidityBarometerVisibility
3:00 am
Mon, Oct 14
32 °FMostly cloudy.5 mph87%29.87 "Hg9 mi
2:00 am32 °FMostly cloudy.7 mph87%29.88 "Hg9 mi
1:00 am34 °FMostly cloudy.7 mph87%29.88 "Hg9 mi
12:00 am32 °FMostly cloudy.6 mph87%29.89 "Hg9 mi
11:00 pm
Sun, Oct 13
32 °FPassing clouds.6 mph87%29.89 "Hg9 mi
10:00 pm34 °FOvercast.2 mph81%29.90 "Hg9 mi
9:00 pm36 °FOvercast.No wind75%29.91 "Hg9 mi
8:00 pm39 °FOvercast.2 mph70%29.91 "Hg9 mi
7:00 pm39 °FOvercast.6 mph70%29.91 "Hg9 mi
6:00 pm41 °FOvercast.No wind66%29.90 "Hg9 mi
5:00 pm43 °FBroken clouds.7 mph57%29.89 "Hg9 mi
4:00 pm43 °FMostly cloudy.8 mph57%29.89 "Hg9 mi
3:00 pm43 °FOvercast.12 mph57%29.90 "Hg9 mi
2:00 pm41 °FMostly cloudy.9 mph61%29.91 "Hg9 mi
1:00 pm37 °FOvercast.7 mph65%29.92 "Hg9 mi
12:00 pm37 °FMostly cloudy.7 mph65%29.93 "Hg9 mi
11:00 am37 °FMore clouds than sun.6 mph65%29.92 "Hg9 mi
10:00 am36 °FPartly sunny.5 mph70%29.92 "Hg9 mi
9:00 am34 °FOvercast.8 mph75%29.92 "Hg9 mi
8:00 am32 °FOvercast.9 mph80%29.92 "Hg9 mi
7:00 am32 °FOvercast.6 mph87%29.91 "Hg9 mi
6:00 am32 °FOvercast.8 mph87%29.90 "Hg9 mi
5:00 am32 °FMostly cloudy.8 mph87%29.90 "Hg9 mi
4:45 am32 °FOvercast.9 mph87%29.90 "Hg9 mi
4:34 am32 °FLight snow. Overcast.7 mph87%29.90 "Hg9 mi
4:00 am34 °FOvercast.8 mph81%29.90 "Hg9 mi
Weather by CustomWeather, © 2019

See weather overview